Location: ??????????
(44.2167°N, 135.5333°E)
Time: 14:36:26
(UTC+00:00)

SL-16 R/B - Pass Details

Date: 15 June 2025
Orbit: 985 x 1006 km, 99.7° (Epoch: 15 July)

Event Time Altitude Azimuth Distance (km) Brightness Sun altitude
Rises 17:41:07 0° 149° (SSE) 3,692 5.3 -12.9°
Reaches altitude 10° 17:43:36 10° 146° (SE) 2,750 4.7 -12.6°
Maximum altitude 17:49:38 58° 69° (ENE) 1,155 3.2 -11.9°
Drops below altitude 10° 17:55:44 10° 352° (N) 2,781 5.5 -11.2°
Sets 17:58:15 0° 349° (NNW) 3,737 6.1 -10.9°
